When you browse on this site, cookies collect data to enhance your experience and personalize the content and advertising you see.
Visit our Privacy Policy to learn more. By continuing to use the site, you agree to this use of cookies and data.
  • In United Kingdom
  • List of Countries
  • For 7 days
  • Water Temperature
  • Satellite Maps
  • Weather Map
  • Weather Widgets
  • user-avatar
    Login

    Hourly Weather Digah

    Today, 24 March, Sunday

    Time Temperature Precipitation Wind Pressure Humidity
    00:00 +9°C° 0 mm 7 mps 756 mmHg 81%
    01:00 +9°C° 0 mm 6 mps 756 mmHg 82%
    02:00 +9°C° 0 mm 6 mps 755 mmHg 83%
    03:00 +8°C° 0 mm 6 mps 755 mmHg 85%
    04:00 +8°C° 0 mm 5 mps 755 mmHg 86%
    05:00 +8°C° 0 mm 4 mps 756 mmHg 86%
    06:00 +8°C° 0 mm 3 mps 756 mmHg 87%
    07:00 +7°C° 0 mm 5 mps 756 mmHg 85%
    08:00 +7°C° 0 mm 6 mps 756 mmHg 83%
    09:00 +6°C° 0 mm 7 mps 756 mmHg 80%
    10:00 +7°C° 0 mm 8 mps 756 mmHg 79%
    11:00 +7°C° 0 mm 8 mps 756 mmHg 77%
    12:00 +7°C° 0 mm 9 mps 756 mmHg 76%
    13:00 +7°C° 0 mm 10 mps 756 mmHg 75%
    14:00 +7°C° 0 mm 11 mps 756 mmHg 74%
    15:00 +7°C° 0 mm 12 mps 756 mmHg 73%
    16:00 +5°C° 0 mm 12 mps 756 mmHg 75%
    17:00 +4°C° 0 mm 12 mps 756 mmHg 77%
    18:00 +4°C° 0 mm 12 mps 756 mmHg 80%
    19:00 +4°C° 0 mm 12 mps 757 mmHg 79%
    20:00 +4°C° 0 mm 11 mps 757 mmHg 78%
    21:00 +4°C° 0 mm 11 mps 757 mmHg 78%
    22:00 +4°C° 0.1 mm 12 mps 757 mmHg 77%
    23:00 +3°C° 0.1 mm 12 mps 757 mmHg 76%

    Tomorrow, 25 March, Monday

    Time Temperature Precipitation Wind Pressure Humidity
    00:00 +3°C° 0.1 mm 12 mps 758 mmHg 76%
    01:00 +3°C° 0 mm 12 mps 758 mmHg 75%
    02:00 +3°C° 0 mm 13 mps 758 mmHg 73%
    03:00 +3°C° 0 mm 13 mps 758 mmHg 72%
    04:00 +3°C° 0.1 mm 13 mps 758 mmHg 71%
    05:00 +3°C° 0.1 mm 13 mps 758 mmHg 70%
    06:00 +3°C° 0.1 mm 13 mps 759 mmHg 69%
    07:00 +3°C° 0.2 mm 13 mps 759 mmHg 67%
    08:00 +4°C° 0.2 mm 13 mps 759 mmHg 65%
    09:00 +4°C° 0.2 mm 14 mps 759 mmHg 63%
    10:00 +4°C° 0.7 mm 13 mps 759 mmHg 66%
    11:00 +4°C° 0.7 mm 13 mps 759 mmHg 68%
    12:00 +4°C° 0.7 mm 12 mps 759 mmHg 71%
    13:00 +4°C° 0.4 mm 12 mps 759 mmHg 72%
    14:00 +4°C° 0.4 mm 12 mps 759 mmHg 74%
    15:00 +4°C° 0.4 mm 11 mps 759 mmHg 75%
    16:00 +4°C° 0.3 mm 11 mps 759 mmHg 75%
    17:00 +3°C° 0.3 mm 10 mps 759 mmHg 74%
    18:00 +3°C° 0.3 mm 10 mps 759 mmHg 74%
    19:00 +3°C° 0.2 mm 10 mps 760 mmHg 73%
    20:00 +3°C° 0.2 mm 9 mps 760 mmHg 73%
    21:00 +3°C° 0.2 mm 9 mps 760 mmHg 73%
    22:00 +4°C° 0 mm 8 mps 760 mmHg 72%
    23:00 +4°C° 0 mm 7 mps 760 mmHg 71%

    Day after tomorrow, 26 March, Tuesday

    Time Temperature Precipitation Wind Pressure Humidity
    00:00 +4°C° 0 mm 6 mps 760 mmHg 70%
    01:00 +4°C° 0 mm 6 mps 760 mmHg 70%
    02:00 +4°C° 0 mm 6 mps 760 mmHg 70%
    03:00 +5°C° 0 mm 5 mps 760 mmHg 69%
    04:00 +5°C° 0 mm 5 mps 760 mmHg 70%
    05:00 +5°C° 0 mm 5 mps 760 mmHg 71%
    06:00 +5°C° 0 mm 5 mps 760 mmHg 72%
    07:00 +6°C° 0 mm 5 mps 761 mmHg 69%
    08:00 +6°C° 0 mm 4 mps 761 mmHg 66%
    09:00 +7°C° 0 mm 4 mps 761 mmHg 63%
    10:00 +7°C° 0 mm 4 mps 761 mmHg 61%
    11:00 +8°C° 0 mm 4 mps 761 mmHg 58%
    12:00 +9°C° 0 mm 3 mps 761 mmHg 55%
    13:00 +9°C° 0 mm 3 mps 760 mmHg 55%
    14:00 +10°C° 0 mm 3 mps 760 mmHg 54%
    15:00 +10°C° 0 mm 3 mps 760 mmHg 53%
    16:00 +10°C° 0 mm 3 mps 760 mmHg 54%
    17:00 +9°C° 0 mm 3 mps 759 mmHg 55%
    18:00 +9°C° 0 mm 3 mps 759 mmHg 56%
    19:00 +9°C° 0 mm 3 mps 759 mmHg 58%
    20:00 +9°C° 0 mm 3 mps 759 mmHg 60%
    21:00 +9°C° 0 mm 3 mps 759 mmHg 62%
    22:00 +8°C° 0 mm 3 mps 759 mmHg 63%
    23:00 +8°C° 0 mm 3 mps 758 mmHg 64%

    27 March, Wednesday

    Time Temperature Precipitation Wind Pressure Humidity
    00:00 +7°C° 0 mm 4 mps 758 mmHg 65%
    01:00 +7°C° 0 mm 4 mps 757 mmHg 66%
    02:00 +7°C° 0 mm 4 mps 757 mmHg 67%
    03:00 +7°C° 0 mm 5 mps 757 mmHg 68%
    04:00 +7°C° 0 mm 5 mps 757 mmHg 69%
    05:00 +7°C° 0 mm 6 mps 757 mmHg 71%
    06:00 +6°C° 0 mm 7 mps 757 mmHg 72%
    07:00 +8°C° 0 mm 6 mps 757 mmHg 71%
    08:00 +8°C° 0 mm 6 mps 757 mmHg 69%
    09:00 +9°C° 0 mm 5 mps 757 mmHg 67%
    10:00 +10°C° 0 mm 4 mps 757 mmHg 65%
    11:00 +11°C° 0 mm 4 mps 757 mmHg 63%
    12:00 +11°C° 0 mm 3 mps 757 mmHg 60%
    13:00 +11°C° 0 mm 3 mps 757 mmHg 61%
    14:00 +12°C° 0 mm 2 mps 757 mmHg 61%
    15:00 +12°C° 0 mm 2 mps 757 mmHg 61%
    16:00 +12°C° 0 mm 2 mps 757 mmHg 64%
    17:00 +10°C° 0 mm 2 mps 757 mmHg 67%
    18:00 +10°C° 0 mm 2 mps 758 mmHg 69%
    19:00 +10°C° 0 mm 2 mps 758 mmHg 71%
    20:00 +10°C° 0 mm 2 mps 758 mmHg 73%
    21:00 +10°C° 0 mm 2 mps 759 mmHg 74%
    22:00 +11°C° 0 mm 1 mps 758 mmHg 75%
    23:00 +11°C° 0 mm 1 mps 758 mmHg 76%

    28 March, Thursday

    Time Temperature Precipitation Wind Pressure Humidity
    00:00 +11°C° 0 mm 1 mps 758 mmHg 77%
    01:00 +10°C° 0 mm 1 mps 758 mmHg 78%
    02:00 +10°C° 0 mm 1 mps 758 mmHg 78%
    03:00 +10°C° 0 mm 1 mps 759 mmHg 79%
    04:00 +10°C° 0 mm 1 mps 759 mmHg 76%
    05:00 +10°C° 0 mm 1 mps 760 mmHg 74%
    06:00 +10°C° 0 mm 1 mps 760 mmHg 71%
    07:00 +10°C° 0 mm 3 mps 760 mmHg 64%
    08:00 +11°C° 0 mm 4 mps 761 mmHg 58%
    09:00 +12°C° 0 mm 5 mps 761 mmHg 51%
    10:00 +11°C° 0 mm 7 mps 761 mmHg 53%
    11:00 +11°C° 0 mm 8 mps 761 mmHg 54%
    12:00 +11°C° 0 mm 10 mps 761 mmHg 56%
    13:00 +9°C° 0 mm 10 mps 761 mmHg 60%
    14:00 +9°C° 0 mm 11 mps 761 mmHg 64%
    15:00 +8°C° 0 mm 11 mps 761 mmHg 68%
    16:00 +7°C° 0 mm 11 mps 762 mmHg 67%
    17:00 +7°C° 0 mm 11 mps 762 mmHg 66%
    18:00 +6°C° 0 mm 10 mps 763 mmHg 65%
    19:00 +6°C° 0 mm 10 mps 763 mmHg 66%
    20:00 +5°C° 0 mm 10 mps 763 mmHg 67%
    21:00 +5°C° 0 mm 10 mps 764 mmHg 67%
    22:00 +5°C° 0 mm 10 mps 764 mmHg 69%
    23:00 +5°C° 0 mm 10 mps 764 mmHg 70%

    29 March, Friday

    Time Temperature Precipitation Wind Pressure Humidity
    00:00 +3°C° 0 mm 10 mps 764 mmHg 72%
    01:00 +3°C° 0 mm 10 mps 764 mmHg 73%
    02:00 +3°C° 0 mm 10 mps 764 mmHg 74%
    03:00 +3°C° 0 mm 10 mps 764 mmHg 75%
    04:00 +3°C° 0.1 mm 10 mps 764 mmHg 76%
    05:00 +3°C° 0.1 mm 10 mps 764 mmHg 76%
    06:00 +3°C° 0.1 mm 9 mps 764 mmHg 77%
    07:00 +3°C° 0.1 mm 9 mps 765 mmHg 77%
    08:00 +3°C° 0.1 mm 9 mps 765 mmHg 76%
    09:00 +4°C° 0.1 mm 8 mps 765 mmHg 76%
    10:00 +5°C° 0 mm 8 mps 765 mmHg 74%
    11:00 +5°C° 0 mm 8 mps 764 mmHg 71%
    12:00 +6°C° 0 mm 7 mps 764 mmHg 69%
    13:00 +6°C° 0 mm 7 mps 764 mmHg 70%
    14:00 +7°C° 0 mm 6 mps 763 mmHg 71%
    15:00 +7°C° 0 mm 6 mps 763 mmHg 71%
    16:00 +7°C° 0 mm 5 mps 763 mmHg 73%
    17:00 +6°C° 0 mm 5 mps 763 mmHg 74%
    18:00 +6°C° 0 mm 5 mps 763 mmHg 75%
    19:00 +6°C° 0 mm 4 mps 763 mmHg 75%
    20:00 +6°C° 0 mm 4 mps 763 mmHg 76%
    21:00 +7°C° 0 mm 3 mps 763 mmHg 76%
    22:00 +7°C° 0 mm 3 mps 763 mmHg 76%
    23:00 +7°C° 0 mm 2 mps 762 mmHg 77%
    Show more